Time,TemperatureF,DewpointF,PressureIn,WindDirection,WindDirectionDegrees,WindSpeedMPH,WindSpeedGustMPH,Humidity,HourlyPrecipIn,Conditions,Clouds,dailyrainin,SoftwareType,DateUTC
2013-06-05 00:00:00,48.0,42.0,29.95,SE,140,17.0,33.0,79,-99.99,,,-99.99,,2013-06-05 08:00:00,
2013-06-05 00:42:00,48.0,42.0,29.95,SE,140,17.0,33.0,79,-99.99,,,-99.99,,2013-06-05 08:42:00,
2013-06-05 00:52:00,48.0,42.0,29.95,SE,140,17.0,33.0,79,-99.99,,,-99.99,,2013-06-05 08:52:00,
2013-06-05 01:00:00,50.0,42.0,29.94,SSE,160,26.0,38.0,74,-99.99,,,-99.99,,2013-06-05 09:00:00,
2013-06-05 01:42:00,50.0,42.0,29.94,SSE,160,26.0,38.0,74,-99.99,,,-99.99,,2013-06-05 09:42:00,
2013-06-05 01:52:00,50.0,42.0,29.94,SSE,160,26.0,38.0,74,-99.99,,,-99.99,,2013-06-05 09:52:00,
2013-06-05 02:00:00,49.0,42.0,29.97,SSE,150,26.0,38.0,77,-99.99,,,-99.99,,2013-06-05 10:00:00,
2013-06-05 02:42:00,49.0,42.0,29.97,SSE,150,26.0,38.0,77,-99.99,,,-99.99,,2013-06-05 10:42:00,
2013-06-05 02:52:00,49.0,42.0,29.97,SSE,150,26.0,38.0,77,-99.99,,,-99.99,,2013-06-05 10:52:00,
2013-06-05 03:00:00,49.0,41.0,29.97,SSE,160,28.0,36.0,73,-99.99,,,-99.99,,2013-06-05 11:00:00,
2013-06-05 03:42:00,49.0,41.0,29.97,SSE,160,28.0,36.0,73,-99.99,,,-99.99,,2013-06-05 11:42:00,
2013-06-05 03:51:00,49.0,41.0,29.97,SSE,160,28.0,36.0,73,-99.99,,,-99.99,,2013-06-05 11:51:00,
2013-06-05 04:00:00,49.0,42.0,29.97,SSE,160,24.0,36.0,77,-99.99,,,-99.99,,2013-06-05 12:00:00,
2013-06-05 04:43:00,49.0,42.0,29.97,SSE,160,24.0,36.0,77,-99.99,,,-99.99,,2013-06-05 12:43:00,
2013-06-05 04:52:00,49.0,42.0,29.97,SSE,160,24.0,36.0,77,-99.99,,,-99.99,,2013-06-05 12:52:00,
2013-06-05 05:00:00,48.0,42.0,29.98,SSE,160,28.0,39.0,79,-99.99,,,-99.99,,2013-06-05 13:00:00,
2013-06-05 05:42:00,48.0,42.0,29.98,SSE,160,28.0,39.0,79,-99.99,,,-99.99,,2013-06-05 13:42:00,
2013-06-05 05:52:00,48.0,42.0,29.98,SSE,160,28.0,39.0,79,-99.99,,,-99.99,,2013-06-05 13:52:00,
2013-06-05 06:00:00,48.0,42.0,29.99,SSE,150,22.0,37.0,79,-99.99,,,-99.99,,2013-06-05 14:00:00,
2013-06-05 06:42:00,48.0,42.0,29.99,SSE,150,22.0,37.0,79,-99.99,,,-99.99,,2013-06-05 14:42:00,
2013-06-05 06:52:00,48.0,42.0,29.99,SSE,150,22.0,37.0,79,-99.99,,,-99.99,,2013-06-05 14:52:00,
2013-06-05 07:00:00,48.0,42.0,30.00,SSE,150,25.0,38.0,79,-99.99,,,-99.99,,2013-06-05 15:00:00,
2013-06-05 07:42:00,48.0,42.0,30.00,SSE,150,25.0,38.0,79,-99.99,,,-99.99,,2013-06-05 15:42:00,
2013-06-05 07:53:00,48.0,42.0,30.00,SSE,150,25.0,38.0,79,-99.99,,,-99.99,,2013-06-05 15:53:00,
2013-06-05 08:00:00,48.0,42.0,30.01,SSE,160,26.0,40.0,79,-99.99,,,-99.99,,2013-06-05 16:00:00,
2013-06-05 08:42:00,48.0,42.0,30.01,SSE,160,26.0,40.0,79,-99.99,,,-99.99,,2013-06-05 16:42:00,
2013-06-05 08:53:00,48.0,42.0,30.01,SSE,160,26.0,40.0,79,-99.99,,,-99.99,,2013-06-05 16:53:00,
2013-06-05 09:00:00,48.0,43.0,30.03,SSE,160,25.0,41.0,82,-99.99,,,-99.99,,2013-06-05 17:00:00,
2013-06-05 09:42:00,48.0,43.0,30.03,SSE,160,25.0,41.0,82,-99.99,,,-99.99,,2013-06-05 17:42:00,
2013-06-05 09:52:00,48.0,43.0,30.03,SSE,160,25.0,41.0,82,-99.99,,,-99.99,,2013-06-05 17:52:00,
2013-06-05 10:00:00,49.0,41.0,30.04,SSE,160,30.0,40.0,73,-99.99,,,-99.99,,2013-06-05 18:00:00,
2013-06-05 10:42:00,49.0,41.0,30.04,SSE,160,30.0,40.0,73,-99.99,,,-99.99,,2013-06-05 18:42:00,
2013-06-05 10:52:00,49.0,41.0,30.04,SSE,160,30.0,40.0,73,-99.99,,,-99.99,,2013-06-05 18:52:00,
2013-06-05 11:00:00,49.0,42.0,30.06,SSE,160,28.0,37.0,77,-99.99,,,-99.99,,2013-06-05 19:00:00,
2013-06-05 11:41:00,49.0,42.0,30.06,SSE,160,28.0,37.0,77,-99.99,,,-99.99,,2013-06-05 19:41:00,
2013-06-05 11:52:00,49.0,42.0,30.06,SSE,160,28.0,37.0,77,-99.99,,,-99.99,,2013-06-05 19:52:00,
2013-06-05 12:00:00,49.0,44.0,30.07,South,170,24.0,37.0,83,-99.99,,,-99.99,,2013-06-05 20:00:00,
2013-06-05 12:42:00,49.0,44.0,30.07,South,170,24.0,37.0,83,-99.99,,,-99.99,,2013-06-05 20:42:00,
2013-06-05 12:51:00,49.0,44.0,30.07,South,170,24.0,37.0,83,-99.99,,,-99.99,,2013-06-05 20:51:00,
2013-06-05 13:00:00,49.0,44.0,30.09,South,170,22.0,33.0,83,-99.99,,,-99.99,,2013-06-05 21:00:00,
2013-06-05 13:43:00,49.0,44.0,30.09,South,170,22.0,33.0,83,-99.99,,,-99.99,,2013-06-05 21:43:00,
2013-06-05 13:53:00,49.0,44.0,30.09,South,170,22.0,33.0,83,-99.99,,,-99.99,,2013-06-05 21:53:00,
2013-06-05 14:00:00,49.0,44.0,30.10,SSE,160,24.0,36.0,83,-99.99,,,-99.99,,2013-06-05 22:00:00,
2013-06-05 14:42:00,49.0,44.0,30.10,SSE,160,24.0,36.0,83,-99.99,,,-99.99,,2013-06-05 22:42:00,
2013-06-05 14:52:00,49.0,44.0,30.10,SSE,160,24.0,36.0,83,-99.99,,,-99.99,,2013-06-05 22:52:00,
2013-06-05 15:00:00,50.0,44.0,30.10,South,170,23.0,34.0,79,-99.99,,,-99.99,,2013-06-05 23:00:00,
2013-06-05 15:41:00,50.0,44.0,30.10,South,170,23.0,34.0,79,-99.99,,,-99.99,,2013-06-05 23:41:00,
2013-06-05 15:52:00,50.0,44.0,30.10,South,170,23.0,34.0,79,-99.99,,,-99.99,,2013-06-05 23:52:00,
2013-06-05 16:00:00,50.0,42.0,30.11,South,170,24.0,38.0,74,-99.99,,,-99.99,,2013-06-06 00:00:00,
2013-06-05 16:42:00,50.0,42.0,30.11,South,170,24.0,38.0,74,-99.99,,,-99.99,,2013-06-06 00:42:00,
2013-06-05 16:51:00,50.0,42.0,30.11,South,170,24.0,38.0,74,-99.99,,,-99.99,,2013-06-06 00:51:00,
2013-06-05 17:00:00,49.0,44.0,30.11,South,170,23.0,38.0,83,-99.99,,,-99.99,,2013-06-06 01:00:00,
2013-06-05 17:42:00,49.0,44.0,30.11,South,170,23.0,38.0,83,-99.99,,,-99.99,,2013-06-06 01:42:00,
2013-06-05 17:52:00,49.0,44.0,30.11,South,170,23.0,38.0,83,-99.99,,,-99.99,,2013-06-06 01:52:00,
2013-06-05 18:00:00,49.0,44.0,30.11,South,170,25.0,33.0,83,-99.99,,,-99.99,,2013-06-06 02:00:00,
2013-06-05 19:00:00,49.0,43.0,30.10,South,190,22.0,30.0,79,-99.99,,,-99.99,,2013-06-06 03:00:00,
2013-06-05 19:42:00,49.0,43.0,30.10,South,190,22.0,30.0,79,-99.99,,,-99.99,,2013-06-06 03:42:00,
2013-06-05 19:52:00,49.0,43.0,30.10,South,190,22.0,30.0,79,-99.99,,,-99.99,,2013-06-06 03:52:00,
2013-06-05 20:00:00,47.0,45.0,30.10,South,190,23.0,28.0,92,-99.99,,,-99.99,,2013-06-06 04:00:00,
2013-06-05 20:42:00,47.0,45.0,30.10,South,190,23.0,28.0,92,-99.99,,,-99.99,,2013-06-06 04:42:00,
2013-06-05 20:52:00,47.0,45.0,30.10,South,190,23.0,28.0,92,-99.99,,,-99.99,,2013-06-06 04:52:00,
2013-06-05 21:00:00,48.0,45.0,30.11,South,170,23.0,29.0,89,-99.99,,,-99.99,,2013-06-06 05:00:00,
2013-06-05 21:41:00,48.0,45.0,30.11,South,170,23.0,29.0,89,-99.99,,,-99.99,,2013-06-06 05:41:00,
2013-06-05 21:51:00,48.0,45.0,30.11,South,170,23.0,29.0,89,-99.99,,,-99.99,,2013-06-06 05:51:00,
2013-06-05 22:00:00,48.0,45.0,30.11,South,180,20.0,30.0,89,-99.99,,,-99.99,,2013-06-06 06:00:00,
2013-06-05 22:41:00,48.0,45.0,30.11,South,180,20.0,30.0,89,-99.99,,,-99.99,,2013-06-06 06:41:00,
2013-06-05 22:52:00,48.0,45.0,30.11,South,180,20.0,30.0,89,-99.99,,,-99.99,,2013-06-06 06:52:00,
2013-06-05 23:00:00,48.0,44.0,30.10,South,190,18.0,26.0,86,-99.99,,,-99.99,,2013-06-06 07:00:00,
2013-06-05 23:42:00,48.0,44.0,30.10,South,190,18.0,26.0,86,-99.99,,,-99.99,,2013-06-06 07:42:00,
2013-06-05 23:52:00,48.0,44.0,30.10,South,190,18.0,26.0,86,-99.99,,,-99.99,,2013-06-06 07:52:00,